Terminal Aerodrome Forecast
Issued by NWS

Home | Current Version | Previous Version | Text Only | Print | Product List | Glossary On
Versions: 1 2 3 4 5 6 7 8 9 10 11 12 13 14 15
125
FTUS43 KLSX 211532 AAA
TAFUIN
TAF AMD
KUIN 211532Z 2116/2212 29008KT P6SM OVC120
     FM211605 32015G25KT P6SM OVC100
     FM212100 33013G19KT P6SM SKC
     FM220100 33008KT P6SM SKC=

USA.gov is the U.S. government's official web portal to all federal, state and local government web resources and services.